Location: Azul
(36.7830°S, 59.8500°W)
Time: 00:52:38
(UTC-03:00)

ISS - Pass Details

Date: 19 June 2017
Orbit: 401 x 408 km, 51.6° (Epoch: 29 June)

Event Time Altitude Azimuth Distance (km) Brightness Sun altitude
Exits shadow 06:44:19 48° 257° (WSW) 542 -3.7 -16.9°
Maximum altitude 06:45:01 66° 317° (NW) 449 -3.8 -16.8°
Drops below altitude 10° 06:48:16 10° 39° (NE) 1,462 -0.1 -16.2°
Sets 06:50:21 0° 42° (NE) 2,315 1.1 -15.8°
